Hourly Data Report for October 04, 2020

CARBERRY CS
MANITOBA
Current Station Operator: ECCC - MSC

49°54'20.900" N
99°21'26.800" W
383.50 m
5010547
71170
WZE

Download Data

Hourly Data (October 2020)
Hourly Data Report for October 4, 2020
TIME
LST
Temp Definition
°C
Dew Point Definition
°C
Rel Hum Definition
%
Precip. Amount Definition
mm

Wind Dir Definition
10's deg

Wind Spd Definition
km/h
Visibility Definition
km
Stn Press Definition
kPa
Hmdx Definition


Wind Chill Definition


Weather Definition


00:00 5.8 -0.7 63 0.0 16 11   97.60     LegendNANA
01:00 6.0 -1.5 59 0.0 18 14   97.57     LegendNANA
02:00 5.7 -2.3 56 0.0 18 17   97.51     LegendNANA
03:00 4.3 -2.3 62 0.0 18 14   97.49     LegendNANA
04:00 3.3 -2.2 67 0.0 18 12   97.45     LegendNANA
05:00 2.8 -1.5 73 0.0 17 11   97.39     LegendNANA
06:00 2.5 -0.7 79 0.0 17 11   97.34     LegendNANA
07:00 2.0 -0.6 83 0.0 18 10   97.28     LegendNANA
08:00 3.5 0.5 81 0.0 16 12   97.13     LegendNANA
09:00 6.8 1.5 69 0.0 19 17   97.10     LegendNANA
10:00 10.4 2.0 56 0.0 19 19   96.96     LegendNANA
11:00 13.2 2.7 49 0.0 22 17   96.88     LegendNANA
12:00 15.1 2.7 43 0.0 20 19   96.72     LegendNANA
13:00 16.6 2.8 40 0.0 20 23   96.59     LegendNANA
14:00 16.1 3.1 42 0.0 19 26   96.47     LegendNANA
15:00 16.6 3.6 42 0.0 18 23   96.34     LegendNANA
16:00 17.7 4.0 40 0.0 20 21   96.26     LegendNANA
17:00 17.6 3.8 40 0.0 20 19   96.21     LegendNANA
18:00 16.8 4.2 43 0.0 18 19   96.07     LegendNANA
19:00 16.4 4.3 45 0.0 17 18   96.01     LegendNANA
20:00 15.7 4.5 47 0.0 18 19   95.93     LegendNANA
21:00 14.7 4.6 51 0.0 18 20   95.85     LegendNANA
22:00 13.6 4.8 55 0.0 17 15   95.78     LegendNANA
23:00 12.5 4.7 59 0.0 17 14   95.71     LegendNANA

Notes on Data Quality.

Legend

  • E = Estimated
  • M = Missing
  • NA = Not Available*
  • [empty] = Indicates an unobserved value
Date modified: